Terug naar catalogus

COSMOS 2255

ActiefMilitairPO
NORAD 22690·PAYLOAD·🇷🇺 Russia

Gelanceerd Jun 24, 1993 vanaf Plesetsk Cosmodrome

Loading…

Volgende Passages (komende 24 uur)

TLE

VersSource: Space-Track

Epoch: Sep 14, 2026, 04:43 UTC

1 22690U 93038D   26257.19672370  .00000031  00000-0  11166-3 0  9991
2 22690  82.5886 172.7769 0006344 130.9426  37.1013 12.63329450532469

Volg COSMOS 2255 in realtime met AllMySat

Download on the App Store